Вернуться в каталог

STARLINK-11288

АктивенСвязьVLEO
NORAD 61002·PAYLOAD·🇺🇸 United States

Запущен Sep 5, 2024 с Cape Canaveral Space Force Station

Loading…

Ближайшие Пролёты (ближайшие 24 часа)

TLE

СвежийSource: CelesTrak SupGP

Эпоха: Sep 14, 2026, 21:24 UTC

1 61002C 24158N   26257.89215278  .00056810  00000+0  46797-3 0  2575
2 61002  53.1571  68.4105 0001096  86.8035 255.6395 15.69680436    17

Отслеживайте STARLINK-11288 в реальном времени с AllMySat

Download on the App Store